Regional Weather Roundup
Issued by NWS

Home | Current Version | Previous Version | Text Only | Print | Product List | Glossary On
Versions: 1 2 3 4 5 6 7 8 9 10 11 12 13 14 15 16 17 18 19 20 21 22 23 24 25 26 27 28 29 30 31 32 33 34 35 36 37 38 39 40 41 42 43 44 45 46 47 48 49 50
030
ASUS43 KDTX 040210
RWRMI
MICHIGAN HOURLY REGIONAL WEATHER ROUNDUP
NATIONAL WEATHER SERVICE DETROIT/PONTIAC MI
900 PM EST SAT DEC 03 2016

NOTE: "FAIR" INDICATES FEW OR NO CLOUDS BELOW 12,000 FEET WITH NO
SIGNIFICANT WEATHER AND/OR OBSTRUCTION TO VISIBILITY.

MIZ047>049-052>055-059>063-066>070-074>076-081>083-040300-
SOUTHEAST LOWER MICHIGAN

CITY           SKY/WX    TMP DP  RH WIND       PRES   REMARKS
ADRIAN         CLOUDY    36  26  67 CALM      30.30S
ALMA           CLOUDY    35  29  80 W6        30.28R WCI  30
ANN ARBOR      CLOUDY    35  30  82 SW3       30.28S
BAD AXE        CLOUDY    36  32  85 W7        30.26S WCI  30
CARO           CLOUDY    35  32  87 SW5       30.26F WCI  31
DETROIT CITY   CLOUDY    37  28  70 W5        30.29S WCI  33
DETROIT        CLOUDY    37  29  72 SW7       30.29S WCI  32
FLINT          CLOUDY    36  30  79 W5        30.27F WCI  32
GROSSE ILE     CLOUDY    37  30  75 CALM      30.29S
HILLSDALE      CLOUDY    32  28  86 CALM      30.26F
HOWELL         CLOUDY    35  28  78 CALM      30.27S

CITY           SKY/WX    TMP DP  RH WIND       PRES   REMARKS
JACKSON        CLOUDY    34  26  72 W3        30.28S
LAMBERTVILLE   CLOUDY    38  27  64 CALM      30.31R
LANSING        CLOUDY    35  25  66 W5        30.29S WCI  31
LAPEER         NOT AVBL
MASON          CLOUDY    35  30  83 CALM      30.28R
MONROE         CLOUDY    36  30  79 CALM      30.29S
MT. CLEMENS    CLOUDY    38  30  74 W6        30.25S WCI  33
PONTIAC        CLOUDY    35  29  78 W3        30.26S
PORT HOPE        N/A     36  34  92 SW3       30.24S
PORT HURON     CLOUDY    36  30  80 CALM      30.28R
TRI CITIES     CLOUDY    37  31  78 SW6       30.28S WCI  32
MIDLAND        CLOUDY    37  29  71 CALM      30.26S
TROY           CLOUDY    37  28  67 CALM      30.29F
SAGINAW HB     CLOUDY    36  30  80 SW3       30.26F
$$
MIZ043>046-050>051-056>058-064>065-071>073-077>080-040300-
SOUTHWEST LOWER MICHIGAN

CITY           SKY/WX    TMP DP  RH WIND       PRES   REMARKS
BATTLE CREEK   CLOUDY    34  27  75 W5        30.29R WCI  30
BENTON HARBOR  CLOUDY    36  25  64 SW6       30.28F WCI  31
BIG RAPIDS     CLOUDY    34  28  77 W3        30.26S
COLDWATER      CLOUDY    34  26  70 CALM      30.28S
FREMONT        CLOUDY    33  25  72 CALM      30.27F
HOLLAND        CLOUDY    36  28  73 CALM      30.28F
GRAND RAPIDS   CLOUDY    35  27  72 SW6       30.29R WCI  30
IONIA          CLOUDY    34  27  75 CALM      30.27S
KALAMAZOO      CLOUDY    35  25  66 W5        30.29S WCI  31
LUDINGTON      CLOUDY    34  29  83 CALM      30.27S
MARSHALL       CLOUDY    34  28  77 CALM      30.28R
MOUNT PLEASANT CLOUDY    35  30  81 SW5       30.26S WCI  31
MUSKEGON       CLOUDY    36  26  67 CALM      30.28S
SOUTH HAVEN    CLOUDY    37  29  74 S3        30.28S
$$
MIZ016>042-040300-
NORTHERN LOWER MICHIGAN

CITY           SKY/WX    TMP DP  RH WIND       PRES   REMARKS
ALPENA         CLOUDY    35  31  85 CALM      30.24F
BEAVER ISLAND  CLOUDY    36  32  85 NE3       30.24S
BELLAIRE       LGT SNOW  33  33  99 CALM      30.26R
CADILLAC       CLOUDY    32  29  89 CALM      30.23S
CHARLEVOIX     CLOUDY    36  34  94 S5        30.27R WCI  32
FRANKFORT      CLOUDY    36  31  83 SW5       30.26R WCI  32
GAYLORD        CLOUDY    34  30  85 CALM      30.22S
GRAYLING       LGT SNOW  34  33  95 CALM      30.24S
HARBOR SPRINGS CLOUDY    36  33  88 CALM      30.24S
HOUGHTON LAKE  CLOUDY    34  29  82 NW7       30.24F WCI  28
MANISTEE       CLOUDY    35  28  75 CALM      30.26F
OSCODA         CLOUDY    37  34  89 MISG      30.24S
PELLSTON       CLOUDY    34  30  85 CALM      30.24F
ROGERS CITY    CLOUDY    37  32  83 W5        30.25S WCI  33
TRAVERSE CITY  LGT RAIN  35  33  92 CALM      30.25R
$$
MIZ007>008-015-040300-
EASTERN UPPER MICHIGAN

CITY           SKY/WX    TMP DP  RH WIND       PRES   REMARKS
KINROSS        CLOUDY    32  31  96 W3        30.24S
MACKINAC ISLAN CLOUDY    34  32  90 NE8       30.24R WCI  28
NEWBERRY       CLOUDY    32  31  98 CALM      30.23S
S. S. MARIE    CLOUDY    33  28  81 NE3       30.23F
MUNISING         N/A     33  32  96 S3        30.23F
$$
MIZ004>006-011>014-085-040300-
CENTRAL UPPER MICHIGAN

CITY           SKY/WX    TMP DP  RH WIND       PRES   REMARKS
MANISTIQUE     CLOUDY    33  31  94 CALM      30.23S
ESCANABA       CLOUDY    34  29  82 W6        30.25S WCI  29
MENOMINEE      CLOUDY    30  25  80 SW7       30.26F WCI  23
SAWYER-GWINN   CLOUDY    32  27  80 CALM      30.22S
$$
MIZ001>003-009>011-084-040300-
WESTERN UPPER MICHIGAN

CITY           SKY/WX    TMP DP  RH WIND       PRES   REMARKS
IRON MOUNTAIN  CLOUDY    31  26  82 CALM      30.20F
HOUGHTON       CLOUDY    32  26  78 SW5       30.20F WCI  27
COPPER HARBOR    N/A     33  31  92 W3        30.23R
IRONWOOD       CLOUDY    28  24  85 S5        30.21S WCI  23
$$

ABBREVIATIONS USED IN REMARKS
   TC - TEMPERATURE IN CELSIUS
  WCI - WIND CHILL INDEX
   HX - HEAT INDEX
  VSB - VISIBILITY





USA.gov is the U.S. government's official web portal to all federal, state and local government web resources and services.